Weather History for Big Piney, WY

Change the Weather History Date:

Thursday, January 10, 2013

  Actual Average Record
Temperature  
Mean Temperature 18 °F 11 °F  
Max Temperature 32 °F 26 °F 43 °F (1983)
Min Temperature 4 °F -4 °F -25 °F (2011)
Degree Days  
Heating Degree Days 47 54  
Month to date heating degree days 596 540  
Since 1 July heating degree days 4318 4979  
Cooling Degree Days 0 0  
Month to date cooling degree days 0 0  
Year to date cooling degree days 0 0  
Moisture  
Dew Point 14 °F    
Average Humidity 78    
Maximum Humidity 96    
Minimum Humidity 59    
Precipitation  
Precipitation 0.07 in 0.02 in 0.29 in (2005)
Month to date precipitation 0.07 0.11  
Year to date precipitation 0.07 0.11  
Sea Level Pressure  
Sea Level Pressure 29.65 in    
Wind  
Wind Speed 4 mph (ESE)    
Max Wind Speed 25 mph    
Max Gust Speed 29 mph    
Visibility 5 miles    
Events Fog , Snow    
T = Trace of Precipitation, MM = Missing Value Source: NWS Daily Summary

Daily Weather History Graph

Daily Weather History Graph

Search for Another Location

Airport:

Trip Planner

Search our weather history database for the weather conditions in past years. The results will help you decide how hot, cold, wet, or windy it might be!

Date:

Astronomy

Jan. 10, 2013 Rise Set
Actual Time 7:49 AM MST 5:07 PM MST
Civil Twilight 7:17 AM MST 5:38 PM MST
Nautical Twilight 6:42 AM MST 6:13 PM MST
Astronomical Twilight 6:08 AM MST 6:47 PM MST
Moon 6:32 AM MST (1/10) 4:19 PM MST (1/10)
Length of Visible Light 10h 20m
Length of Day
9h 17m
Waning Crescent, 2% of the Moon is Illuminated
Jan 10
Waning Crescent
Jan 11
New
Jan 18
First Quarter
Jan 26
Full
Feb 3
Last Quarter

Hourly Weather History & Observations

Time (MST) Temp. Windchill Dew Point Humidity Pressure Visibility Wind Dir Wind Speed Gust Speed Precip Events Conditions
12:53 AM 8.1 °F - 6.1 °F 92% 30.06 in 0.2 mi Calm Calm - N/A Fog Light Freezing Fog
1:53 AM 9.0 °F 2.4 °F 5.0 °F 84% 30.01 in 2.0 mi North 3.5 mph - N/A   Overcast
2:03 AM 8.6 °F 0.1 °F 6.8 °F 92% 29.86 in 0.8 mi NNW 4.6 mph - N/A   Mist
2:35 AM 10.4 °F 0.8 °F 6.8 °F 85% 29.84 in 2.0 mi NNW 5.8 mph - N/A   Overcast
2:48 AM 10.4 °F - 8.6 °F 92% 29.84 in 0.8 mi Calm Calm - 0.00 in   Mist
2:53 AM 10.9 °F 4.7 °F 9.0 °F 92% 29.97 in 0.5 mi North 3.5 mph - 0.00 in Fog Light Freezing Fog
3:07 AM 10.4 °F 4.0 °F 6.8 °F 85% 29.82 in 2.0 mi ENE 3.5 mph - N/A   Overcast
3:15 AM 10.4 °F 4.0 °F 6.8 °F 85% 29.81 in 8.0 mi East 3.5 mph - N/A   Overcast
3:53 AM 10.0 °F - 6.1 °F 84% 29.94 in 10.0 mi Calm Calm - N/A   Overcast
4:53 AM 9.0 °F 0.6 °F 6.1 °F 88% 29.90 in 5.0 mi ENE 4.6 mph - N/A   Overcast
5:22 AM 8.6 °F - 5.0 °F 85% 29.75 in 10.0 mi Calm Calm - N/A   Scattered Clouds
5:53 AM 7.0 °F - 3.9 °F 87% 29.92 in 9.0 mi Calm Calm - N/A   Partly Cloudy
6:37 AM 6.8 °F - 3.2 °F 85% 29.73 in 1.0 mi Calm Calm - N/A   Overcast
6:42 AM 6.8 °F -0.1 °F 1.4 °F 79% 29.73 in 2.5 mi ENE 3.5 mph - N/A   Haze
6:49 AM 6.8 °F -3.5 °F 1.4 °F 79% 29.72 in 1.5 mi NE 5.8 mph - N/A   Overcast
6:53 AM 6.1 °F -4.3 °F 1.9 °F 83% 29.94 in 1.8 mi ENE 5.8 mph - N/A   Mostly Cloudy
6:56 AM 6.8 °F -4.8 °F 1.4 °F 79% 29.72 in 3.0 mi ENE 6.9 mph - N/A   Mostly Cloudy
7:53 AM 6.1 °F - 1.9 °F 83% 29.91 in 10.0 mi Calm Calm - N/A   Clear
8:53 AM 10.9 °F 1.4 °F 8.1 °F 88% 29.90 in 10.0 mi North 5.8 mph - N/A   Clear
9:53 AM 12.9 °F - 10.0 °F 88% 29.86 in 10.0 mi Calm Calm - N/A   Overcast
10:53 AM 17.1 °F - 15.1 °F 92% 29.81 in 10.0 mi Calm Calm - N/A   Mostly Cloudy
11:53 AM 19.0 °F - 15.1 °F 85% 29.74 in 10.0 mi Calm Calm - N/A   Scattered Clouds
12:53 PM 23.0 °F - 17.1 °F 78% 29.68 in 10.0 mi Calm Calm - N/A   Overcast
1:53 PM 25.0 °F - 17.1 °F 72% 29.65 in 10.0 mi Calm Calm - N/A   Overcast
2:53 PM 28.0 °F 22.8 °F 18.0 °F 66% 29.59 in 10.0 mi East 4.6 mph - N/A   Partly Cloudy
3:53 PM 32.0 °F 26.4 °F 19.9 °F 61% 29.55 in 10.0 mi South 5.8 mph - N/A   Mostly Cloudy
4:53 PM 26.1 °F 19.4 °F 19.0 °F 75% 29.57 in 10.0 mi NNW 5.8 mph - N/A   Overcast
5:40 PM 26.6 °F 22.6 °F 21.2 °F 80% 29.46 in 1.8 mi SE 3.5 mph - 0.00 in Snow Light Snow
5:45 PM 26.6 °F 22.6 °F 21.2 °F 80% 29.46 in 0.8 mi SSE 3.5 mph - 0.00 in Snow Light Snow
5:53 PM 25.0 °F 20.7 °F 23.0 °F 92% 29.57 in 1.5 mi SE 3.5 mph - 0.00 in Snow Light Snow
5:57 PM 24.8 °F - 23.0 °F 93% 29.46 in 3.0 mi Calm Calm - 0.00 in Snow Light Snow
6:08 PM 24.8 °F - 21.2 °F 86% 29.45 in 8.0 mi Calm Calm - 0.00 in   Overcast
6:48 PM 23.0 °F - 21.2 °F 93% 29.44 in 7.0 mi Calm Calm - 0.00 in   Overcast
6:53 PM 23.0 °F - 21.0 °F 92% 29.56 in 7.0 mi Calm Calm - 0.00 in   Overcast
7:19 PM 23.0 °F - 21.2 °F 93% 29.42 in 10.0 mi Calm Calm - N/A   Overcast
7:53 PM 25.0 °F - 23.0 °F 92% 29.52 in 6.0 mi Calm Calm - 0.00 in Snow Light Snow
8:02 PM 24.8 °F - 23.0 °F 93% 29.41 in 1.8 mi Calm Calm - 0.00 in Snow Light Snow
8:19 PM 24.8 °F - 23.0 °F 93% 29.41 in 0.5 mi Calm Calm - 0.00 in Fog , Snow Snow
8:26 PM 24.8 °F 19.1 °F 24.8 °F 100% 29.41 in 0.2 mi South 4.6 mph - 0.01 in Fog , Snow Heavy Snow
8:48 PM 26.6 °F 15.2 °F 24.8 °F 93% 29.41 in 0.5 mi South 13.8 mph - 0.06 in Fog , Snow Light Snow
8:53 PM 26.1 °F 14.0 °F 24.1 °F 92% 29.49 in 0.8 mi SSW 15.0 mph - 0.06 in Snow Light Snow
9:26 PM 26.6 °F 14.7 °F 24.8 °F 93% 29.39 in 1.0 mi South 15.0 mph - 0.01 in Snow Light Snow
9:31 PM 24.8 °F 13.4 °F 24.8 °F 100% 29.39 in 3.0 mi South 12.7 mph - 0.01 in Snow Light Snow
9:53 PM 25.0 °F 15.5 °F 24.1 °F 96% 29.46 in 8.0 mi South 9.2 mph - 0.01 in   Overcast
10:04 PM 24.8 °F 14.0 °F 21.2 °F 86% 29.37 in 10.0 mi South 11.5 mph - N/A   Overcast
10:53 PM 23.0 °F 13.9 °F 21.0 °F 92% 29.44 in 10.0 mi SSE 8.1 mph - N/A   Overcast
11:53 PM 23.0 °F 18.4 °F 21.0 °F 92% 29.43 in 9.0 mi SSW 3.5 mph - 0.00 in   Overcast